Location: Moonridge Observatory
(39.2268°N, 77.7914°W)
Time: 02:25:27
(UTC-04:00)

Amateur Radio Satellites - All Passes

Search period start: 06 May 2015 01:55
Search period end: 07 May 2015 01:55
Location: Moonridge Observatory, 39.2268°N, 77.7914°W

Satellite Date Start Highest point End Downlink Frequencies (MHz)
Time Altitude Azimuth
AIST 2 06 May 02:07:34 02:11:30 35° 308° (NW) 02:15:27 435.215
Oscar 19 06 May 02:08:34 02:13:19 36° 97° (E) 02:18:05 437.125/150
TISAT 1 06 May 02:10:11 02:11:46 12° 271° (W) 02:13:07 437.305
STARS 06 May 02:10:22 02:11:12 11° 63° (ENE) 02:12:16 437.465
GONETS M04 06 May 02:29:13 02:37:28 42° 73° (ENE) 02:45:44
ITUPSAT 1 06 May 02:52:14 02:56:29 31° 264° (W) 03:00:42 437.325
Gurwin Techsat 1B 06 May 03:06:46 03:11:34 35° 96° (E) 03:16:25 435.225
ITAMSAT 1 06 May 03:08:47 03:13:38 40° 98° (E) 03:18:31 435.822/435.867
CUSAT 1 06 May 03:14:04 03:22:24 74° 79° (ENE) 03:30:22 437.405
KKS-1 06 May 03:16:17 03:20:44 90° 255° (WSW) 03:25:13 437.445
BEESAT 06 May 03:16:44 03:20:02 18° 268° (W) 03:23:09 436.000
SWISSCUBE 06 May 03:21:56 03:24:40 15° 270° (W) 03:27:10 437.505
DANDE 06 May 03:27:08 03:35:33 74° 78° (ENE) 03:43:58 436.750
STARS 06 May 03:42:42 03:47:05 74° 257° (WSW) 03:51:33 437.465
Oscar 19 06 May 03:48:12 03:52:32 27° 293° (WNW) 03:56:46 437.125/150
HORYU 2 06 May 03:57:11 04:00:13 18° 92° (E) 04:03:23 437.375
GONETS M04 06 May 04:26:12 04:34:19 41° 272° (W) 04:42:13
AO-7 06 May 04:31:17 04:38:43 36° 97° (E) 04:46:17 29.400- 29.500
Gurwin Techsat 1B 06 May 04:46:56 04:51:27 28° 292° (WNW) 04:55:53 435.225
ITAMSAT 1 06 May 04:48:47 04:52:57 24° 293° (WNW) 04:57:00 435.822/435.867
Cosmos 2499 06 May 04:52:01 04:59:19 57° 78° (ENE) 05:06:15 435.465 / 435.565
CUSAT 1 06 May 04:58:05 05:04:28 24° 275° (W) 05:10:20 437.405
MOZHAYETS 4 06 May 05:06:53 05:11:31 88° 257° (WSW) 05:16:10
DANDE 06 May 05:11:36 05:18:13 25° 274° (W) 05:24:30 436.750
JAS-2 06 May 05:13:52 05:19:38 79° 102° (ESE) 05:24:54 435.910
HORYU 2 06 May 05:32:53 05:37:03 38° 289° (WNW) 05:41:10 437.375
CUBESAT XI-V 06 May 05:41:06 05:43:56 17° 67° (ENE) 05:46:56 437.345
PCSat 06 May 05:50:36 05:55:36 41° 112° (ESE) 06:00:42 145.827
O/OREOS (USA 219) 06 May 05:50:44 05:54:33 27° 60° (ENE) 05:58:25 437.305
M-CUBED/EXP-1 PRIME 06 May 05:56:41 06:00:41 28° 65° (ENE) 06:04:40 437.505
PRISM 06 May 06:02:17 06:04:25 14° 66° (ENE) 06:06:43 437.425
AO-7 06 May 06:23:47 06:31:45 50° 295° (WNW) 06:39:38 29.400- 29.500
AUBIESAT-1 06 May 06:27:11 06:31:45 49° 69° (ENE) 06:36:13 437.475
Cosmos 2499 06 May 06:46:18 06:51:54 23° 276° (W) 06:57:02 435.465 / 435.565
JAS-2 06 May 07:01:08 07:03:58 14° 301° (WNW) 07:06:25 435.910
STRAND 1 06 May 07:12:46 07:17:50 71° 74° (ENE) 07:22:55 437.568
CUBESAT XI-V 06 May 07:16:37 07:21:03 47° 262° (W) 07:25:30 437.345
CUTE-I 06 May 07:24:43 07:30:01 65° 101° (E) 07:35:20 437.470
O/OREOS (USA 219) 06 May 07:30:10 07:33:56 26° 256° (WSW) 07:37:35 437.305
M-CUBED/EXP-1 PRIME 06 May 07:31:05 07:35:25 32° 259° (WSW) 07:39:37 437.505
PCSat 06 May 07:34:30 07:39:11 28° 310° (NW) 07:43:49 145.827
PRISM 06 May 07:35:34 07:39:33 45° 261° (W) 07:43:31 437.425
Cubesat XI-IV 06 May 07:37:57 07:43:20 86° 103° (ESE) 07:48:41 437.490
BEESAT 3 06 May 07:59:54 08:02:03 14° 42° (NE) 08:04:18 437.485
AUBIESAT-1 06 May 08:03:28 08:06:44 18° 263° (W) 08:09:46 437.475
Cosmos 2491 06 May 08:08:54 08:16:03 28° 67° (ENE) 08:23:26 435.465 / 435.565
BRITE-PL 06 May 08:10:22 08:13:48 17° 89° (E) 08:17:33 437.365/2234.400
BEESAT 2 06 May 08:16:26 08:19:05 17° 44° (NE) 08:21:48 435.950
ISS 06 May 08:16:46 08:19:59 83° 145° (SE) 08:23:15 145.825
AO-7 06 May 08:21:11 08:22:46 10° 315° (NW) 08:23:49 29.400- 29.500
GOMX 1 06 May 08:35:22 08:39:04 19° 90° (E) 08:43:00 467.674
CANX-2 06 May 08:44:45 08:46:20 12° 89° (E) 08:48:09 2200.000
CUTE 1.7 + AOD 2 06 May 08:51:42 08:53:40 13° 90° (E) 08:55:50 437.475
AIST 2 06 May 08:52:55 08:55:01 14° 41° (NE) 08:57:16 435.215
STRAND 1 06 May 08:55:27 08:57:39 12° 272° (W) 08:59:34 437.568
SO-50 06 May 08:57:39 09:02:07 49° 117° (ESE) 09:06:46 436.795
HO-68 06 May 09:00:42 09:06:36 28° 94° (E) 09:12:38 435.675
CUTE-I 06 May 09:06:17 09:09:38 17° 297° (WNW) 09:12:46 437.470
COMPASS 1 06 May 09:07:08 09:08:57 13° 89° (E) 09:10:57 437.405
YUBILEINY 06 May 09:09:11 09:16:10 29° 84° (E) 09:23:24 435.215
CINEMA 3 06 May 09:10:41 09:12:37 12° 87° (E) 09:14:51 145.822/145.860
Cubesat XI-IV 06 May 09:20:31 09:22:47 12° 299° (WNW) 09:24:46 437.490
TIGRISAT 06 May 09:35:55 09:36:59 11° 63° (ENE) 09:38:19 435.000
BEESAT 3 06 May 09:36:28 09:40:32 65° 242° (WSW) 09:44:30 437.485
AAUSAT CUBESAT 2 06 May 09:38:18 09:41:45 25° 95° (E) 09:45:14 437.432
UNISAT 6 06 May 09:44:20 09:46:40 14° 65° (ENE) 09:49:13 437.425
BRITE-PL 06 May 09:47:17 09:52:43 63° 285° (WNW) 09:58:19 437.365/2234.400
SEEDS 06 May 09:49:43 09:53:50 52° 99° (E) 09:57:55 437.485
DOVE 4 06 May 09:51:19 09:56:36 67° 100° (E) 10:01:53 437.250
BEESAT 2 06 May 09:53:31 09:57:31 51° 243° (WSW) 10:01:26 435.950
ISS 06 May 09:54:26 09:56:42 17° 339° (NNW) 09:58:57 145.825
Cosmos 2491 06 May 10:04:56 10:13:38 63° 268° (W) 10:22:16 435.465 / 435.565
GOMX 1 06 May 10:12:13 10:17:31 55° 286° (WNW) 10:22:52 467.674
QB50P2 06 May 10:15:35 10:17:23 13° 65° (ENE) 10:19:24 145.880/145.840
CANX-2 06 May 10:18:31 10:22:40 52° 286° (WNW) 10:26:46 2200.000
NANOSAT C BR1 06 May 10:24:26 10:26:51 16° 67° (ENE) 10:29:27 145.865
ANTELSAT 06 May 10:24:42 10:28:54 36° 71° (ENE) 10:33:14 437.575/2403.000
CUTE 1.7 + AOD 2 06 May 10:25:49 10:29:56 47° 286° (WNW) 10:33:59 437.475
UKube-1 06 May 10:27:48 10:28:58 11° 89° (E) 10:30:26 .
AIST 2 06 May 10:29:57 10:34:10 73° 241° (WSW) 10:38:18 435.215
POPSAT HIP 1 06 May 10:32:40 10:35:38 19° 68° (ENE) 10:38:43 437.405
SO-50 06 May 10:39:15 10:42:58 22° 316° (NW) 10:46:42 436.795
FUNcube-1 06 May 10:39:56 10:44:02 33° 96° (E) 10:48:05 145.935
COMPASS 1 06 May 10:40:57 10:44:59 47° 286° (WNW) 10:48:58 437.405
Oscar 11 06 May 10:41:24 10:45:42 63° 101° (E) 10:49:59 145.826/435.025
AIST 1 06 May 10:41:32 10:45:39 45° 79° (ENE) 10:49:48
CINEMA 3 06 May 10:45:22 10:50:24 70° 285° (WNW) 10:55:20 145.822/145.860
HO-68 06 May 10:47:44 10:54:41 53° 291° (WNW) 11:01:33 435.675
DUCHIFAT 1 06 May 10:53:07 10:56:48 31° 71° (ENE) 11:00:34 145.980
50 SAT 06 May 11:00:34 11:02:32 14° 90° (E) 11:04:39 437.505
CUBEBUG 2 06 May 11:01:20 11:06:07 89° 281° (W) 11:10:47 437.445
UWE-3 06 May 11:02:10 11:06:52 77° 101° (ESE) 11:11:25 435.000/436.395/437.385
YUBILEINY 06 May 11:03:49 11:12:30 59° 282° (WNW) 11:21:10 435.215
HUMSAT D 06 May 11:04:36 11:08:17 28° 95° (E) 11:11:59 437.325/437.525
DELFI C3 06 May 11:05:57 11:10:00 87° 284° (WNW) 11:14:00 145.870
POLYITAN 1 06 May 11:06:45 11:10:49 46° 73° (ENE) 11:14:57 437.675
TIGRISAT 06 May 11:08:29 11:13:06 80° 258° (WSW) 11:17:51 435.000
ZACube-1 06 May 11:10:01 11:14:37 74° 101° (E) 11:19:05 437.345
AAUSAT CUBESAT 2 06 May 11:13:55 11:17:18 24° 290° (WNW) 11:20:36 437.432
QB50P1 06 May 11:18:07 11:22:17 63° 74° (ENE) 11:26:31 145.935-145.965
UNISAT 6 06 May 11:18:23 11:22:58 61° 260° (W) 11:27:39 437.425
CUBEBUG 1 06 May 11:26:01 11:27:49 13° 90° (E) 11:29:52 437.445
SEEDS 06 May 11:27:10 11:29:14 13° 294° (WNW) 11:31:07 437.485
BUGSAT 1 06 May 11:27:26 11:31:20 52° 74° (ENE) 11:35:19 437.445
VERMONT LUNAR 06 May 11:29:51 11:32:28 22° 151° (SSE) 11:35:08 437.305
DOVE 4 06 May 11:30:34 11:33:51 16° 295° (WNW) 11:36:55 437.250
DX 1 06 May 11:35:21 11:39:45 75° 102° (ESE) 11:44:07 434.975-435.025
QB50P2 06 May 11:48:42 11:52:52 55° 260° (W) 11:57:04 145.880/145.840
Cosmos 2504 06 May 11:50:44 11:58:01 31° 86° (E) 12:05:20 435.465 / 435.565
VELOX 1 06 May 11:53:48 11:58:11 54° 100° (E) 12:02:35 145.980
NANOSAT C BR1 06 May 11:58:20 12:02:23 43° 262° (W) 12:06:27 145.865
ESTCUBE 1 06 May 12:01:08 12:05:17 36° 97° (E) 12:09:27 437.505/2401.250
UKube-1 06 May 12:01:17 12:05:35 60° 286° (WNW) 12:09:51 .
ANTELSAT 06 May 12:02:11 12:05:48 22° 267° (W) 12:09:22 437.575/2403.000
POPSAT HIP 1 06 May 12:07:25 12:11:18 34° 263° (W) 12:15:11 437.405
AISAT 06 May 12:16:27 12:20:57 81° 284° (WNW) 12:25:25 437.250
FUNcube-1 06 May 12:16:36 12:20:11 23° 292° (WNW) 12:23:38 145.935
Oscar 11 06 May 12:19:47 12:21:24 12° 295° (WNW) 12:22:47 145.826/435.025
RS-15 06 May 12:19:53 12:29:51 46° 110° (ESE) 12:40:11 29.354- 29.394
AIST 1 06 May 12:20:46 12:22:57 13° 273° (W) 12:24:55
PHONESAT 2.4 06 May 12:24:18 12:26:58 20° 149° (SSE) 12:29:40 2401.200-2431.200
DUCHIFAT 1 06 May 12:29:29 12:32:42 20° 267° (W) 12:35:49 145.980
50 SAT 06 May 12:33:47 12:37:34 40° 287° (WNW) 12:41:17 437.505
HUMSAT D 06 May 12:40:28 12:43:57 23° 291° (WNW) 12:47:16 437.325/437.525
UWE-3 06 May 12:41:17 12:42:48 11° 297° (WNW) 12:44:01 435.000/436.395/437.385
POLYITAN 1 06 May 12:44:45 12:47:03 14° 270° (W) 12:49:10 437.675
ZACube-1 06 May 12:48:56 12:50:24 11° 296° (WNW) 12:51:35 437.345
CUBEBUG 1 06 May 13:00:16 13:04:35 54° 286° (WNW) 13:08:54 437.445
BUGSAT 1 06 May 13:06:03 13:07:14 11° 271° (W) 13:08:10 437.445
VERMONT LUNAR 06 May 13:06:17 13:09:36 82° 168° (SSE) 13:12:56 437.305
ISS 06 May 13:09:32 13:11:32 15° 19° (NNE) 13:13:34 145.825
YUBILEINY 06 May 13:10:25 13:11:47 10° 306° (NW) 13:12:22 435.215
DX 1 06 May 13:14:34 13:15:27 10° 297° (WNW) 13:16:06 434.975-435.025
Oscar 19 06 May 13:24:14 13:29:10 47° 72° (ENE) 13:34:09 437.125/150
VELOX 1 06 May 13:31:53 13:34:21 14° 295° (WNW) 13:36:37 145.980
SPROUT 06 May 13:33:47 13:38:09 86° 286° (WNW) 13:42:30 437.525
ESTCUBE 1 06 May 13:38:36 13:41:57 20° 292° (WNW) 13:45:11 437.505/2401.250
BEESAT 06 May 13:40:41 13:42:30 12° 89° (E) 13:44:36 436.000
Cosmos 2504 06 May 13:42:27 13:51:07 56° 283° (WNW) 13:59:27 435.465 / 435.565
SWISSCUBE 06 May 13:44:34 13:47:13 15° 90° (E) 13:50:05 437.505
TISAT 1 06 May 13:52:34 13:56:50 69° 285° (WNW) 14:01:05 437.305
PHONESAT 2.4 06 May 14:01:20 14:04:51 75° 165° (SSE) 14:08:24 2401.200-2431.200
ITAMSAT 1 06 May 14:25:40 14:30:41 55° 73° (ENE) 14:35:45 435.822/435.867
Gurwin Techsat 1B 06 May 14:26:43 14:31:47 50° 72° (ENE) 14:36:56 435.225
RS-15 06 May 14:31:35 14:42:10 52° 313° (NW) 14:52:58 29.354- 29.394
PCSat 06 May 14:39:33 14:44:11 28° 50° (NE) 14:48:51 145.827
VERMONT LUNAR 06 May 14:43:45 14:47:05 68° 2° (N) 14:50:25 437.305
ISS 06 May 14:45:06 14:48:22 73° 37° (NE) 14:51:36 145.825
ITUPSAT 1 06 May 14:53:10 14:57:56 73° 102° (ESE) 15:02:42 437.325
HORYU 2 06 May 14:55:05 14:57:48 16° 66° (ENE) 15:00:40 437.375
Oscar 19 06 May 15:05:01 15:08:49 20° 268° (W) 15:12:28 437.125/150
KKS-1 06 May 15:09:26 15:12:35 19° 93° (E) 15:15:51 437.445
BEESAT 06 May 15:16:09 15:20:53 64° 285° (WNW) 15:25:34 436.000
SWISSCUBE 06 May 15:20:50 15:25:28 52° 287° (WNW) 15:30:04 437.505
JAS-2 06 May 15:23:03 15:29:49 36° 68° (ENE) 15:36:14 435.910
GONETS M04 06 May 15:28:35 15:36:53 50° 90° (E) 15:45:20
AO-7 06 May 15:29:05 15:36:44 45° 64° (ENE) 15:44:31 29.400- 29.500
STARS 06 May 15:34:14 15:37:40 22° 94° (E) 15:41:10 437.465
PHONESAT 2.4 06 May 15:39:35 15:43:08 69° 2° (N) 15:46:42 2401.200-2431.200
ITAMSAT 1 06 May 16:07:15 16:10:37 17° 269° (W) 16:13:46 435.822/435.867
Gurwin Techsat 1B 06 May 16:08:16 16:12:06 19° 269° (W) 16:15:47 435.225
CUSAT 1 06 May 16:20:25 16:25:04 78° 98° (E) 16:31:24 437.405
VERMONT LUNAR 06 May 16:21:11 16:24:29 59° 199° (SSW) 16:27:48 437.305
PCSat 06 May 16:22:40 16:27:45 41° 248° (WSW) 16:32:46 145.827
ISS 06 May 16:23:31 16:24:19 11° 231° (SW) 16:25:00 145.825
HORYU 2 06 May 16:29:44 16:34:06 48° 261° (W) 16:38:28 437.375
ITUPSAT 1 06 May 16:33:18 16:35:18 12° 297° (WNW) 16:37:04 437.325
DANDE 06 May 16:38:22 16:42:42 85° 97° (E) 16:48:41 436.750
KKS-1 06 May 16:45:12 16:49:23 37° 289° (WNW) 16:53:30 437.445
RS-15 06 May 16:50:21 16:58:10 20° 343° (NNW) 17:05:59 29.354- 29.394
MOZHAYETS 4 06 May 17:03:48 17:07:25 23° 93° (E) 17:11:07
JAS-2 06 May 17:07:18 17:14:44 46° 262° (W) 17:21:36 435.910
CUTE-I 06 May 17:09:35 17:11:28 12° 61° (ENE) 17:13:38 437.470
STARS 06 May 17:10:11 17:14:11 32° 289° (WNW) 17:18:06 437.465
PHONESAT 2.4 06 May 17:17:50 17:21:23 67° 198° (SSW) 17:24:56 2401.200-2431.200
Cubesat XI-IV 06 May 17:21:39 17:24:44 16° 63° (ENE) 17:28:03 437.490
AO-7 06 May 17:21:58 17:29:38 40° 262° (W) 17:37:15 29.400- 29.500
Cosmos 2499 06 May 17:25:31 17:33:52 52° 91° (E) 17:41:53 435.465 / 435.565
GONETS M04 06 May 17:26:09 17:34:03 35° 290° (WNW) 17:41:52
SO-50 06 May 17:30:08 17:34:41 36° 50° (NE) 17:39:14 436.795
VERMONT LUNAR 06 May 17:59:35 18:01:30 14° 213° (SSW) 18:03:21 437.305
CUSAT 1 06 May 18:06:24 18:09:13 14° 304° (NW) 18:12:01 437.405
DANDE 06 May 18:25:50 18:27:31 11° 306° (NW) 18:28:59 436.750
MOZHAYETS 4 06 May 18:40:39 18:44:42 31° 289° (WNW) 18:48:41
CUTE-I 06 May 18:45:35 18:50:53 87° 253° (WSW) 18:56:15 437.470
PHONESAT 2.4 06 May 18:56:44 18:59:14 18° 212° (SSW) 19:01:41 2401.200-2431.200
Cubesat XI-IV 06 May 18:59:06 19:04:22 65° 259° (WSW) 19:09:40 437.490
RS-15 06 May 19:08:20 19:16:20 21° 19° (NNE) 19:24:50 29.354- 29.394
SO-50 06 May 19:10:53 19:15:09 28° 247° (WSW) 19:19:17 436.795
CUBESAT XI-V 06 May 19:14:11 19:18:37 45° 98° (E) 19:23:05 437.345
M-CUBED/EXP-1 PRIME 06 May 19:14:53 19:17:24 18° 97° (E) 19:19:53 437.505
PRISM 06 May 19:19:20 19:22:40 24° 95° (E) 19:26:06 437.425
Cosmos 2499 06 May 19:19:31 19:27:19 34° 289° (WNW) 19:34:36 435.465 / 435.565
BRITE-PL 06 May 19:21:57 19:23:57 13° 63° (ENE) 19:26:14 437.365/2234.400
YUBILEINY 06 May 19:22:11 19:24:52 12° 55° (NE) 19:28:16 435.215
STRAND 1 06 May 19:24:56 19:29:07 26° 94° (E) 19:33:24 437.568
HO-68 06 May 19:29:35 19:34:23 20° 59° (ENE) 19:39:27 435.675
GOMX 1 06 May 19:43:49 19:46:17 15° 64° (ENE) 19:49:01 467.674
AUBIESAT-1 06 May 19:44:43 19:48:10 36° 102° (ESE) 19:51:23 437.475
O/OREOS (USA 219) 06 May 20:01:35 20:05:48 38° 106° (ESE) 20:10:03 437.305
CINEMA 3 06 May 20:13:35 20:13:48 10° 62° (ENE) 20:14:19 145.822/145.860
AAUSAT CUBESAT 2 06 May 20:28:58 20:31:35 17° 68° (ENE) 20:34:20 437.432
SEEDS 06 May 20:40:50 20:44:37 32° 72° (ENE) 20:48:27 437.485
M-CUBED/EXP-1 PRIME 06 May 20:49:10 20:52:23 26° 295° (WNW) 20:55:20 437.505
CUBESAT XI-V 06 May 20:52:36 20:55:45 18° 293° (WNW) 20:58:46 437.345
PRISM 06 May 20:54:42 20:58:05 24° 291° (WNW) 21:01:23 437.425
DOVE 4 06 May 20:55:59 21:00:22 55° 73° (ENE) 21:05:04 437.250
BRITE-PL 06 May 20:57:44 21:01:57 57° 261° (W) 21:06:31 437.365/2234.400
STRAND 1 06 May 21:03:45 21:08:24 35° 290° (WNW) 21:12:59 437.568
Cosmos 2491 06 May 21:09:09 21:16:26 32° 85° (E) 21:24:00 435.465 / 435.565
CANX-2 06 May 21:09:54 21:14:13 86° 258° (WSW) 21:18:33 2200.000
HO-68 06 May 21:14:12 21:21:24 80° 255° (WSW) 21:28:39 435.675
YUBILEINY 06 May 21:15:12 21:23:54 67° 80° (E) 21:32:31 435.215
CUTE 1.7 + AOD 2 06 May 21:17:07 21:21:25 79° 258° (WSW) 21:25:44 437.475
GOMX 1 06 May 21:19:38 21:23:56 53° 262° (W) 21:28:34 467.674
AUBIESAT-1 06 May 21:20:38 21:22:38 14° 300° (WNW) 21:24:27 437.475
RS-15 06 May 21:21:04 21:32:18 54° 49° (NE) 21:44:04 29.354- 29.394
COMPASS 1 06 May 21:30:37 21:34:52 83° 258° (WSW) 21:39:07 437.405
FUNcube-1 06 May 21:34:56 21:38:28 24° 69° (ENE) 21:42:09 145.935
Oscar 11 06 May 21:35:02 21:39:08 42° 73° (ENE) 21:43:17 145.826/435.025
O/OREOS (USA 219) 06 May 21:41:56 21:45:24 20° 303° (WNW) 21:48:46 437.305
CINEMA 3 06 May 21:45:43 21:50:17 86° 262° (W) 21:55:06 145.822/145.860
DELFI C3 06 May 21:52:14 21:56:08 47° 74° (ENE) 22:00:04 145.870
HUMSAT D 06 May 21:56:00 21:58:58 19° 68° (ENE) 22:02:04 437.325/437.525
UWE-3 06 May 21:57:56 22:02:19 54° 74° (ENE) 22:06:52 435.000/436.395/437.385
CUBEBUG 2 06 May 21:58:07 22:02:36 67° 75° (ENE) 22:07:17 437.445
AAUSAT CUBESAT 2 06 May 22:02:57 22:06:56 40° 262° (W) 22:10:55 437.432
ZACube-1 06 May 22:04:39 22:08:58 50° 73° (ENE) 22:13:25 437.345
SEEDS 06 May 22:17:16 22:20:31 20° 267° (W) 22:23:38 437.485
DX 1 06 May 22:29:50 22:34:02 55° 74° (ENE) 22:38:18 434.975-435.025
JUGNU 06 May 22:31:29 22:33:00 11° 181° (S) 22:34:32 437.505
DOVE 4 06 May 22:36:21 22:38:40 13° 273° (W) 22:40:49 437.250
VELOX 1 06 May 22:50:27 22:54:34 42° 72° (ENE) 22:58:45 145.980
UKube-1 06 May 22:54:49 22:59:07 82° 257° (WSW) 23:03:28 .
ESTCUBE 1 06 May 22:59:59 23:03:51 30° 71° (ENE) 23:07:49 437.505/2401.250
TIGRISAT 06 May 23:02:11 23:05:51 23° 93° (E) 23:09:31 435.000
Cosmos 2491 06 May 23:04:28 23:12:59 53° 284° (WNW) 23:21:31 435.465 / 435.565
SRMSAT 06 May 23:05:36 23:06:34 10° 175° (S) 23:07:35 437.500
QB50P1 06 May 23:06:45 23:07:56 11° 89° (E) 23:09:24 145.935-145.965
HO-68 06 May 23:07:32 23:10:24 12° 274° (W) 23:12:42 435.675
AIST 1 06 May 23:10:17 23:13:54 28° 91° (E) 23:17:34
FUNcube-1 06 May 23:10:40 23:14:39 31° 265° (W) 23:18:41 145.935
UNISAT 6 06 May 23:11:58 23:16:02 31° 95° (E) 23:20:04 437.425
Oscar 11 06 May 23:12:47 23:15:33 16° 269° (W) 23:18:10 145.826/435.025
AISAT 06 May 23:13:03 23:17:27 80° 75° (ENE) 23:21:54 437.250
YUBILEINY 06 May 23:13:20 23:20:02 24° 277° (W) 23:26:23 435.215
50 SAT 06 May 23:17:16 23:21:17 86° 257° (WSW) 23:25:22 437.505
BEESAT 3 06 May 23:28:41 23:32:10 28° 114° (ESE) 23:35:45 437.485
DELFI C3 06 May 23:29:46 23:31:35 12° 270° (W) 23:33:12 145.870
HUMSAT D 06 May 23:30:29 23:34:29 36° 263° (W) 23:38:29 437.325/437.525
RS-15 06 May 23:33:47 23:44:45 47° 249° (WSW) 23:55:53 29.354- 29.394
QB50P2 06 May 23:35:31 23:39:06 25° 95° (E) 23:42:42 145.880/145.840
UWE-3 06 May 23:36:51 23:39:17 14° 271° (W) 23:41:32 435.000/436.395/437.385
Cosmos 2504 06 May 23:37:12 23:44:36 51° 76° (ENE) 23:51:39 435.465 / 435.565
CUBEBUG 2 06 May 23:38:27 23:39:54 11° 273° (W) 23:41:05 437.445
ZACube-1 06 May 23:43:08 23:45:42 14° 271° (W) 23:48:05 437.345
NANOSAT C BR1 06 May 23:44:25 23:48:13 31° 96° (E) 23:52:03 145.865
BEESAT 2 06 May 23:46:15 23:50:00 36° 115° (ESE) 23:53:51 435.950
POPSAT HIP 1 06 May 23:53:22 23:57:25 39° 98° (E) 00:01:28 437.405
ANTELSAT 06 May 23:54:07 23:58:48 90° 161° (SSE) 00:03:18 437.575/2403.000
CUBEBUG 1 06 May 23:55:07 23:59:26 76° 258° (WSW) 00:03:47 437.445
DX 1 07 May 00:08:55 00:10:43 12° 270° (W) 00:12:17 434.975-435.025
DUCHIFAT 1 07 May 00:13:58 00:18:16 68° 101° (E) 00:22:32 145.980
SPROUT 07 May 00:26:44 00:30:56 62° 75° (ENE) 00:35:13 437.525
AIST 2 07 May 00:27:03 00:30:46 30° 114° (ESE) 00:34:34 435.215
VELOX 1 07 May 00:28:32 00:31:23 16° 269° (W) 00:34:04 145.980
POLYITAN 1 07 May 00:28:49 00:33:10 78° 285° (WNW) 00:37:28 437.675
ESTCUBE 1 07 May 00:37:06 00:40:47 24° 266° (W) 00:44:21 437.505/2401.250
TIGRISAT 07 May 00:38:31 00:42:39 32° 290° (WNW) 00:46:38 435.000
QB50P1 07 May 00:40:00 00:44:16 58° 285° (WNW) 00:48:28 145.935-145.965
TISAT 1 07 May 00:43:27 00:47:38 75° 76° (ENE) 00:51:52 437.305
BUGSAT 1 07 May 00:45:43 00:49:57 74° 284° (WNW) 00:54:11 437.445
BEESAT 07 May 00:46:27 00:48:48 14° 64° (ENE) 00:51:22 436.000
AIST 1 07 May 00:48:17 00:51:35 21° 287° (WNW) 00:54:48
UNISAT 6 07 May 00:48:55 00:52:42 25° 291° (WNW) 00:56:19 437.425
SWISSCUBE 07 May 00:50:30 00:53:25 17° 65° (ENE) 00:56:30 437.505
SRMSAT 07 May 00:53:52 00:54:50 10° 185° (S) 00:55:45 437.500
BEESAT 3 07 May 01:06:41 01:10:10 26° 311° (NW) 01:13:38 437.485
QB50P2 07 May 01:11:19 01:14:56 26° 290° (WNW) 01:18:29 145.880/145.840
CUSAT 1 07 May 01:18:03 01:21:49 14° 57° (ENE) 01:26:05 437.405
NANOSAT C BR1 07 May 01:20:34 01:23:55 22° 291° (WNW) 01:27:09 145.865
BEESAT 2 07 May 01:24:59 01:28:14 22° 313° (NW) 01:31:27 435.950
POPSAT HIP 1 07 May 01:30:05 01:33:02 18° 293° (WNW) 01:35:50 437.405
Cosmos 2504 07 May 01:31:26 01:37:37 27° 275° (W) 01:43:19 435.465 / 435.565
DANDE 07 May 01:37:32 01:42:14 16° 59° (ENE) 01:47:27 436.750
Oscar 19 07 May 01:37:54 01:41:18 18° 91° (E) 01:44:54 437.125/150
GONETS M04 07 May 01:40:49 01:47:21 23° 64° (ENE) 01:54:11
DUCHIFAT 1 07 May 01:52:21 01:53:36 11° 296° (WNW) 01:54:35 145.980
